| time (UTC) | temp F | wind direction | speed knots | gust knots | rain 1hr in | rain 24hr in | rain mn in | humidity % | barometer mb |
| 20260507174450 | 61 | 84 | 1.7 | 4.3 | 0.00 | 0.04 | 0.04 | 46 | 1009.3 |
| 20260507173427 | 62 | 115 | 0.0 | 2.6 | 0.00 | 0.04 | 0.04 | 46 | 1009.5 |
| 20260507172424 | 61 | 105 | 0.0 | 0.9 | 0.00 | 0.04 | 0.04 | 48 | 1009.9 |
| 20260507171353 | 60 | 112 | 0.0 | 4.3 | 0.00 | 0.04 | 0.04 | 47 | 1010.0 |
| 20260507170353 | 60 | 93 | 0.0 | 3.5 | 0.00 | 0.04 | 0.04 | 47 | 1010.2 |
| 20260507165345 | 60 | 127 | 0.0 | 5.2 | 0.00 | 0.04 | 0.04 | 47 | 1010.5 |
| 20260507164358 | 60 | 95 | 0.9 | 5.2 | 0.00 | 0.04 | 0.04 | 46 | 1010.3 |
| 20260507163337 | 59 | 96 | 0.0 | 3.5 | 0.00 | 0.04 | 0.04 | 47 | 1010.5 |
| 20260507162352 | 59 | 5 | 0.0 | 3.5 | 0.00 | 0.04 | 0.04 | 48 | 1010.6 |
| 20260507161402 | 59 | 311 | 0.0 | 0.9 | 0.00 | 0.04 | 0.04 | 56 | 1010.7 |
| 20260507160418 | 58 | 311 | 0.0 | 0.9 | 0.00 | 0.04 | 0.04 | 54 | 1010.9 |
| 20260507155356 | 58 | 311 | 0.0 | 0.0 | 0.00 | 0.04 | 0.04 | 57 | 1011.0 |
| 20260507154408 | 57 | 311 | 0.0 | 3.5 | 0.00 | 0.04 | 0.04 | 54 | 1010.9 |
| 20260507153429 | 57 | 257 | 0.0 | 0.9 | 0.00 | 0.04 | 0.04 | 57 | 1011.2 |
| 20260507151257 | 56 | 257 | 0.0 | 2.6 | 0.00 | 0.05 | 0.04 | 58 | 1011.1 |
| 20260507150240 | 56 | 248 | 0.0 | 0.9 | 0.00 | 0.07 | 0.04 | 59 | 1011.3 |
| 20260507143000 | 54 | 284 | 0.0 | 0.0 | 0.00 | 0.10 | 0.04 | 69 | 1011.7 |
| 20260507142001 | 54 | 284 | 0.0 | 0.0 | 0.00 | 0.12 | 0.04 | 67 | 1011.7 |
| 20260507140957 | 54 | 284 | 0.0 | 0.0 | 0.00 | 0.12 | 0.04 | 70 | 1011.8 |
| 20260507140008 | 54 | 226 | 0.0 | 0.0 | 0.00 | 0.17 | 0.04 | 71 | 1011.8 |
| 20260507135024 | 54 | 226 | 0.0 | 0.0 | 0.00 | 0.20 | 0.04 | 71 | 1011.8 |
| 20260507134011 | 54 | 226 | 0.0 | 0.0 | 0.00 | 0.22 | 0.04 | 73 | 1012.0 |
| 20260507133010 | 54 | 226 | 0.0 | 0.0 | 0.00 | 0.25 | 0.04 | 74 | 1012.1 |
| 20260507131941 | 54 | 226 | 0.0 | 0.0 | 0.00 | 0.30 | 0.04 | 75 | 1011.8 |
| 20260507130951 | 54 | 226 | 0.0 | 0.0 | 0.00 | 0.32 | 0.04 | 76 | 1011.9 |
| 20260507130006 | 54 | 226 | 0.0 | 0.0 | 0.00 | 0.32 | 0.04 | 73 | 1011.6 |
| 20260507125016 | 54 | 222 | 0.0 | 0.0 | 0.00 | 0.32 | 0.04 | 73 | 1011.7 |
| 20260507124003 | 54 | 222 | 0.0 | 0.0 | 0.00 | 0.32 | 0.04 | 73 | 1011.8 |
| 20260507122940 | 55 | 222 | 0.0 | 0.0 | 0.00 | 0.32 | 0.04 | 77 | 1012.0 |
| 20260507121937 | 55 | 333 | 0.0 | 0.0 | 0.00 | 0.34 | 0.04 | 80 | 1011.6 |
| 20260507121001 | 55 | 333 | 0.0 | 0.9 | 0.00 | 0.35 | 0.04 | 82 | 1011.7 |
| 20260507120014 | 55 | 333 | 0.0 | 0.0 | 0.00 | 0.35 | 0.04 | 87 | 1011.6 |
| 20260507115022 | 55 | 333 | 0.0 | 0.0 | 0.00 | 0.35 | 0.04 | 87 | 1011.4 |
| 20260507114018 | 55 | 333 | 0.0 | 0.9 | 0.00 | 0.35 | 0.04 | 86 | 1011.3 |
| 20260507112958 | 55 | 333 | 0.0 | 0.0 | 0.00 | 0.35 | 0.04 | 90 | 1011.2 |
| 20260507111937 | 55 | 333 | 0.0 | 0.0 | 0.00 | 0.35 | 0.04 | 89 | 1011.3 |
| 20260507110930 | 55 | 333 | 0.0 | 0.0 | 0.00 | 0.35 | 0.04 | 89 | 1011.1 |
| 20260507105922 | 55 | 333 | 0.0 | 0.0 | 0.00 | 0.35 | 0.04 | 89 | 1011.2 |
| 20260507104852 | 55 | 343 | 0.0 | 0.0 | 0.00 | 0.35 | 0.04 | 90 | 1011.1 |
| 20260507103838 | 55 | 343 | 0.0 | 0.0 | 0.00 | 0.35 | 0.04 | 90 | 1010.9 |
| 20260507102813 | 55 | 343 | 0.0 | 0.0 | 0.00 | 0.35 | 0.04 | 90 | 1010.8 |
| 20260507100650 | 55 | 343 | 0.0 | 0.0 | 0.00 | 0.35 | 0.04 | 90 | 1010.7 |
| 20260507095715 | 55 | 343 | 0.0 | 0.0 | 0.00 | 0.35 | 0.04 | 90 | 1010.5 |
| 20260507094728 | 55 | 343 | 0.0 | 0.0 | 0.00 | 0.35 | 0.04 | 89 | 1010.6 |
| 20260507093714 | 55 | 343 | 0.0 | 0.0 | 0.00 | 0.35 | 0.04 | 89 | 1010.6 |
| 20260507092738 | 55 | 343 | 0.0 | 0.0 | 0.00 | 0.35 | 0.04 | 88 | 1010.5 |
| 20260507091742 | 55 | 343 | 0.0 | 0.0 | 0.00 | 0.35 | 0.04 | 89 | 1010.1 |
| 20260507090747 | 55 | 343 | 0.0 | 0.0 | 0.00 | 0.35 | 0.04 | 89 | 1010.3 |
| 20260507085714 | 55 | 343 | 0.0 | 0.0 | 0.00 | 0.35 | 0.04 | 88 | 1010.5 |
| 20260507084700 | 56 | 343 | 0.0 | 0.0 | 0.00 | 0.35 | 0.04 | 89 | 1010.2 |
| 20260507083706 | 56 | 343 | 0.0 | 0.0 | 0.00 | 0.35 | 0.04 | 90 | 1010.2 |
| 20260507080416 | 56 | 343 | 0.0 | 0.0 | 0.00 | 0.35 | 0.04 | 91 | 1009.6 |
| 20260507075437 | 56 | 343 | 0.0 | 0.0 | 0.00 | 0.35 | 0.04 | 91 | 1009.6 |
| 20260507074427 | 56 | 343 | 0.0 | 0.0 | 0.00 | 0.35 | 0.04 | 91 | 1009.5 |
| 20260507072333 | 56 | 343 | 0.0 | 0.0 | 0.00 | 0.35 | 0.04 | 90 | 1009.3 |
| 20260507071306 | 57 | 343 | 0.0 | 0.0 | 0.00 | 0.35 | 0.04 | 91 | 1009.4 |
| 20260507065146 | 57 | 343 | 0.0 | 0.0 | 0.00 | 0.35 | 0.04 | 90 | 1009.3 |
| 20260507064154 | 57 | 343 | 0.0 | 0.0 | 0.00 | 0.35 | 0.04 | 90 | 1009.4 |
| 20260507063122 | 57 | 343 | 0.0 | 0.0 | 0.00 | 0.35 | 0.04 | 91 | 1009.5 |
| 20260507062054 | 57 | 343 | 0.0 | 0.0 | 0.00 | 0.35 | 0.04 | 90 | 1009.3 |
| 20260507061032 | 57 | 343 | 0.0 | 0.0 | 0.00 | 0.35 | 0.04 | 90 | 1009.3 |
| 20260507060044 | 57 | 343 | 0.0 | 0.0 | 0.00 | 0.35 | 0.04 | 90 | 1009.2 |
| 20260507055106 | 57 | 343 | 0.0 | 0.0 | 0.00 | 0.35 | 0.04 | 89 | 1009.4 |
| 20260507054112 | 57 | 342 | 0.0 | 0.0 | 0.00 | 0.35 | 0.04 | 89 | 1009.4 |
| 20260507053055 | 58 | 342 | 0.0 | 0.0 | 0.00 | 0.34 | 0.03 | 89 | 1009.5 |
| 20260507052037 | 58 | 342 | 0.0 | 0.0 | 0.00 | 0.34 | 0.03 | 88 | 1009.2 |
| 20260507045914 | 59 | 334 | 0.0 | 0.0 | 0.00 | 0.34 | 0.03 | 85 | 1009.5 |
| 20260507044927 | 60 | 334 | 0.0 | 0.9 | 0.00 | 0.34 | 0.03 | 85 | 1009.7 |
| 20260507043940 | 61 | 343 | 0.0 | 3.5 | 0.08 | 0.34 | 0.03 | 83 | 1009.5 |
| 20260507042916 | 62 | 304 | 0.0 | 0.0 | 0.13 | 0.33 | 0.02 | 83 | 1009.6 |
| 20260507041929 | 63 | 304 | 0.0 | 0.0 | 0.00 | 0.31 | 0.00 | 80 | 1009.6 |
| 20260507040903 | 63 | 304 | 0.0 | 0.0 | 0.00 | 0.31 | 0.00 | 78 | 1009.3 |
| 20260507035838 | 63 | 304 | 0.0 | 0.0 | 0.00 | 0.31 | 0.31 | 77 | 1009.3 |
| 20260507033629 | 64 | 304 | 0.0 | 3.5 | 0.00 | 0.31 | 0.31 | 73 | 1009.0 |
| 20260507030421 | 65 | 329 | 0.0 | 0.9 | 0.00 | 0.31 | 0.31 | 73 | 1008.5 |
| 20260507025353 | 65 | 16 | 0.0 | 5.2 | 0.00 | 0.31 | 0.31 | 72 | 1008.4 |
| 20260507023221 | 66 | 355 | 0.9 | 4.3 | 0.00 | 0.31 | 0.31 | 74 | 1008.5 |
| 20260507022235 | 66 | 350 | 0.0 | 4.3 | 0.00 | 0.31 | 0.31 | 76 | 1008.2 |
| 20260507021216 | 67 | 351 | 0.0 | 0.0 | 0.00 | 0.31 | 0.31 | 78 | 1008.2 |
| 20260507020239 | 67 | 351 | 0.9 | 4.3 | 0.00 | 0.31 | 0.31 | 76 | 1008.0 |
| 20260507014201 | 68 | 0 | 0.0 | 3.5 | 0.00 | 0.31 | 0.31 | 79 | 1007.8 |
| 20260507013159 | 69 | 262 | 0.0 | 0.0 | 0.00 | 0.31 | 0.31 | 81 | 1008.0 |
| 20260507012131 | 69 | 262 | 0.0 | 0.0 | 0.00 | 0.31 | 0.31 | 81 | 1008.1 |
| 20260507011102 | 69 | 262 | 0.0 | 0.0 | 0.00 | 0.31 | 0.31 | 81 | 1008.0 |
| 20260507003931 | 69 | 262 | 0.0 | 0.0 | 0.00 | 0.31 | 0.31 | 79 | 1007.7 |
| 20260507002923 | 69 | 262 | 0.0 | 0.0 | 0.00 | 0.31 | 0.31 | 78 | 1007.7 |
| 20260507001919 | 70 | 262 | 0.0 | 0.0 | 0.00 | 0.31 | 0.31 | 78 | 1007.5 |
| 20260507000921 | 70 | 262 | 0.0 | 0.0 | 0.00 | 0.31 | 0.31 | 77 | 1007.5 |
| 20260506234725 | 70 | 262 | 0.0 | 0.0 | 0.00 | 0.31 | 0.31 | 76 | 1007.4 |
| 20260506232618 | 71 | 262 | 0.0 | 2.6 | 0.00 | 0.31 | 0.31 | 74 | 1007.1 |
| 20260506231615 | 71 | 240 | 0.0 | 2.6 | 0.00 | 0.31 | 0.31 | 75 | 1007.0 |
| 20260506230553 | 71 | 240 | 0.0 | 0.9 | 0.00 | 0.31 | 0.31 | 74 | 1007.0 |
| 20260506225557 | 71 | 190 | 0.0 | 3.5 | 0.00 | 0.31 | 0.31 | 74 | 1006.9 |
| 20260506224534 | 71 | 277 | 0.0 | 0.9 | 0.00 | 0.31 | 0.31 | 74 | 1006.8 |
| 20260506223554 | 71 | 222 | 0.9 | 6.1 | 0.00 | 0.31 | 0.31 | 73 | 1006.8 |
| 20260506222601 | 71 | 212 | 0.9 | 9.6 | 0.00 | 0.31 | 0.31 | 73 | 1006.8 |
| 20260506221554 | 72 | 207 | 3.5 | 9.6 | 0.00 | 0.31 | 0.31 | 72 | 1006.6 |
| 20260506220609 | 72 | 246 | 1.7 | 7.8 | 0.00 | 0.31 | 0.31 | 72 | 1006.6 |
| 20260506215548 | 72 | 192 | 2.6 | 9.6 | 0.00 | 0.31 | 0.31 | 72 | 1006.7 |
| 20260506214551 | 72 | 245 | 2.6 | 11.3 | 0.00 | 0.31 | 0.31 | 73 | 1006.7 |
| 20260506213546 | 72 | 267 | 3.5 | 11.3 | 0.00 | 0.31 | 0.31 | 73 | 1006.7 |
| 20260506212600 | 72 | 230 | 2.6 | 10.4 | 0.00 | 0.31 | 0.31 | 72 | 1006.7 |
| 20260506211528 | 73 | 271 | 3.5 | 10.4 | 0.00 | 0.31 | 0.31 | 71 | 1006.6 |
| 20260506210516 | 72 | 265 | 3.5 | 7.8 | 0.00 | 0.31 | 0.31 | 71 | 1006.6 |
| 20260506205450 | 72 | 167 | 3.5 | 10.4 | 0.00 | 0.31 | 0.31 | 71 | 1006.0 |
| 20260506204458 | 72 | 241 | 2.6 | 10.4 | 0.00 | 0.31 | 0.31 | 71 | 1006.3 |
| 20260506203447 | 72 | 213 | 2.6 | 9.6 | 0.00 | 0.31 | 0.31 | 71 | 1006.1 |
| 20260506202433 | 72 | 257 | 4.3 | 9.6 | 0.00 | 0.31 | 0.31 | 72 | 1006.2 |
| 20260506201402 | 72 | 196 | 3.5 | 8.7 | 0.00 | 0.31 | 0.31 | 71 | 1006.3 |
| 20260506200425 | 71 | 286 | 4.3 | 11.3 | 0.00 | 0.31 | 0.31 | 73 | 1006.4 |
| 20260506195437 | 71 | 124 | 4.3 | 11.3 | 0.00 | 0.31 | 0.31 | 72 | 1006.4 |
| 20260506194415 | 71 | 196 | 4.3 | 11.3 | 0.00 | 0.31 | 0.31 | 72 | 1006.4 |
| 20260506193355 | 71 | 209 | 5.2 | 14.8 | 0.00 | 0.31 | 0.31 | 73 | 1006.5 |
| 20260506192416 | 71 | 207 | 4.3 | 14.8 | 0.00 | 0.31 | 0.31 | 74 | 1006.4 |
| 20260506190312 | 70 | 259 | 4.3 | 12.2 | 0.00 | 0.31 | 0.31 | 75 | 1006.7 |
| 20260506185250 | 69 | 222 | 2.6 | 12.2 | 0.00 | 0.31 | 0.31 | 75 | 1006.8 |
| 20260506184216 | 69 | 203 | 2.6 | 12.2 | 0.00 | 0.31 | 0.31 | 76 | 1006.8 |
| 20260506183213 | 69 | 238 | 2.6 | 10.4 | 0.00 | 0.31 | 0.31 | 77 | 1006.9 |
| 20260506182224 | 69 | 197 | 4.3 | 11.3 | 0.00 | 0.31 | 0.31 | 75 | 1007.0 |
| 20260506180137 | 69 | 162 | 3.5 | 9.6 | 0.00 | 0.31 | 0.31 | 76 | 1007.3 |